This is the latest recevied weather packets stored in our database for station/object LY3FF-10. If no packets are shown the sender has not sent any weather packets the latest 10 day(s).
| Time | Temp. | Humidity | Pressure | Rain* | Wind** | Luminosity | Snow |
|---|---|---|---|---|---|---|---|
| 1777808397 | 37.78° C | 19% | 993.4 hPa | - | - | - | - |
| 1777807652 | 25.56° C | 19% | 993.5 hPa | - | - | - | - |
| 1777806922 | 25.56° C | 22% | 993.4 hPa | - | - | - | - |
| 1777806057 | 35° C | 23% | 993.7 hPa | - | - | - | - |
| 1777805167 | 25.56° C | 24% | 993.7 hPa | - | - | - | - |
| 1777804402 | 35.56° C | 23% | 993.8 hPa | - | - | - | - |
| 1777803557 | 35° C | 22% | 993.9 hPa | - | - | - | - |
| 1777802661 | 25° C | 21% | 994.1 hPa | - | - | - | - |
| 1777801787 | 25° C | 25% | 994.1 hPa | - | - | - | - |
| 1777801067 | 31.67° C | 25% | 994.1 hPa | - | - | - | - |
| 1777800172 | 25.56° C | 26% | 994.1 hPa | - | - | - | - |
| 1777799347 | 24.44° C | 28% | 994.3 hPa | - | - | - | - |
| 1777798552 | 23.33° C | 27% | 994.4 hPa | - | - | - | - |
| 1777797735 | 22.78° C | 29% | 994.4 hPa | - | - | - | - |
| 1777796982 | 22.22° C | 31% | 994.3 hPa | - | - | - | - |
| 1777796102 | 21.67° C | 32% | 994.4 hPa | - | - | - | - |
| 1777795352 | 21.67° C | 33% | 994.4 hPa | - | - | - | - |
| 1777794587 | 21.11° C | 34% | 994.4 hPa | - | - | - | - |
| 1777793832 | 20° C | 35% | 994.4 hPa | - | - | - | - |
| 1777793047 | 19.44° C | 36% | 994.5 hPa | - | - | - | - |
| 1777792287 | 18.89° C | 37% | 994.4 hPa | - | - | - | - |
| 1777791470 | 18.33° C | 37% | 994.5 hPa | - | - | - | - |
| 1777790655 | 17.22° C | 37% | 994.5 hPa | - | - | - | - |
| 1777789937 | 16.67° C | 39% | 994.5 hPa | - | - | - | - |
| 1777789042 | 15.56° C | 39% | 994.5 hPa | - | - | - | - |
* Rain since midnight (hover to see other rain measurements)
** Current wind speed in m/s (hover to see current wind gust speed)